Content
SEND FEEDBACK

Daily
Averages
Monthly
Summary
United States of America

BOILING SPRING LAKES, NORTH CAROLINA


Home > North America > United States > North Carolina
Elevation: 20 feet     Latitude: 34 00N     Longitude: 078 01W

WEATHER
 
SELECT A DAY
Number of Records: 136,694;   Date Range: 8/21/01 - 8/30/14
 
SHARE

PRINT THIS DATA

[ ← Previous Day ]
WEATHER ALMANAC - MARCH 25, 2013
[ Next Day → ]
[ °C ]   °F
Weather ElementAverageHighLow
Temperature45.6 °F53.1 °F (3:35 pm)40.5 °F (1:15 am)
Dewpoint31.4 °F41.9 °F (5:55 am)22.1 °F (11:15 pm)
Humidity61.8 %99 % (4:15 am)35 % (4:15 pm)
Barometer29.67 in29.88 in (11:35 pm)29.55 in (12:55 am)
Wind Speed14 mph24.2 mph (3:15 pm)
Wind Gust38 mph (2:55 pm)
Weather ElementAverage
Visibility9.1 mi
Wind DirectionWSW (260.1 °)

Weather ElementTotal
Precipitation---
Heating Degree Days18.2 (Base 65)
Averaged from 71 records on March 25, 2013
WEATHER CONDITIONS BREAKOUT
WIND DIRECTION BREAKOUT
WEATHER BY HOUR - MARCH 25, 2013
[ °C ]   °F
Local TimeTemperatureDewpointHumidityBarometerVisibilityWind DirectionWind SpeedGust SpeedPrecipitationEventsConditions
12:35 AM40.6 °F39.6 °F96 %29.57 in7.0 miNNE (20°)5.8 mphOvercast
12:55 AM40.6 °F39.6 °F96 %29.55 in7.0 miNE (50°)3.5 mphOvercast
1:15 AM40.5 °F39.4 °F96 %29.55 in7.0 miCalmOvercast
1:35 AM40.6 °F39.6 °F96 %29.56 in7.0 miCalmOvercast
1:55 AM41.0 °F39.9 °F96 %29.56 in7.0 miNW (310°)3.5 mphRainLight Rain
2:15 AM41.0 °F40.3 °F97 %29.58 in5.0 miNW (310°)4.6 mphOvercast
2:35 AM41.0 °F40.3 °F97 %29.60 in5.0 miWNW (290°)4.6 mphOvercast
2:55 AM41.0 °F40.1 °F97 %29.59 in5.0 miWest (270°)3.5 mphOvercast
3:15 AM41.0 °F40.3 °F97 %29.58 in4.0 miNW (320°)3.5 mphOvercast
3:35 AM41.0 °F40.3 °F97 %29.58 in5.0 miWest (260°)3.5 mphOvercast
3:55 AM41.2 °F40.6 °F98 %29.58 in5.0 miWNW (290°)6.9 mphOvercast
4:15 AM41.4 °F41.0 °F99 %29.58 in4.0 miWest (280°)5.8 mphOvercast
4:35 AM41.4 °F40.6 °F97 %29.59 in5.0 miWest (280°)8.1 mphOvercast
4:55 AM41.4 °F40.6 °F97 %29.60 in7.0 miWest (280°)8.1 mphOvercast
5:15 AM41.9 °F41.0 °F97 %29.60 in7.0 miWest (270°)8.1 mphOvercast
5:35 AM42.6 °F41.5 °F96 %29.60 in10.0 miWest (260°)8.1 mphOvercast
5:55 AM43.3 °F41.9 °F95 %29.60 in10.0 miWest (260°)10.4 mphOvercast
6:15 AM43.9 °F41.4 °F91 %29.60 in10.0 miWest (260°)13.8 mph18.4 mphOvercast
6:35 AM43.5 °F40.1 °F88 %29.60 in10.0 miWest (260°)16.1 mph19.6 mphMostly Cloudy
6:55 AM42.6 °F39.2 °F88 %29.62 in10.0 miWest (260°)10.4 mph18.4 mphScattered Clouds
7:15 AM42.4 °F38.7 °F86 %29.62 in10.0 miWest (270°)16.1 mph21.9 mphClear
7:35 AM43.0 °F38.7 °F85 %29.62 in10.0 miWest (260°)16.1 mph21.9 mphScattered Clouds
7:55 AM43.2 °F38.3 °F83 %29.62 in10.0 miWest (260°)16.1 mph26.5 mphScattered Clouds
8:15 AM43.3 °F37.9 °F81 %29.63 in10.0 miWest (270°)16.1 mph23.0 mphClear
8:35 AM43.9 °F37.4 °F78 %29.63 in10.0 miWest (270°)21.9 mph27.6 mphClear
8:55 AM44.6 °F36.1 °F72 %29.64 in10.0 miWest (270°)15.0 mph27.6 mphScattered Clouds
9:15 AM45.1 °F34.2 °F65 %29.64 in10.0 miWest (270°)18.4 mph27.6 mphClear
9:35 AM46.0 °F33.4 °F61 %29.64 in10.0 miWest (270°)17.3 mph28.8 mphClear
9:55 AM46.4 °F32.0 °F57 %29.64 in10.0 miWest (280°)19.6 mph31.1 mphClear
10:15 AM47.1 °F32.0 °F56 %29.64 in10.0 miWest (280°)15.0 mph28.8 mphClear
10:35 AM48.2 °F32.0 °F54 %29.64 in10.0 miWest (260°)18.4 mph27.6 mphClear
10:55 AM48.9 °F32.4 °F53 %29.64 in10.0 miWest (280°)17.3 mph25.3 mphScattered Clouds
11:15 AM48.7 °F31.8 °F52 %29.64 in10.0 miWest (270°)16.1 mph28.8 mphScattered Clouds
11:35 AM49.3 °F31.5 °F50 %29.64 in10.0 miWest (260°)17.3 mph25.3 mphClear
11:55 AM49.6 °F31.1 °F49 %29.64 in10.0 miWest (280°)17.3 mph27.6 mphClear
12:15 PM51.6 °F31.1 °F45 %29.64 in10.0 miWest (260°)18.4 mph31.1 mphScattered Clouds
12:35 PM51.3 °F30.7 °F45 %29.64 in10.0 miWest (280°)19.6 mph29.9 mphScattered Clouds
12:55 PM51.4 °F30.6 °F45 %29.64 in10.0 miWNW (290°)19.6 mph27.6 mphScattered Clouds
1:15 PM51.8 °F29.5 °F42 %29.63 in10.0 miWest (280°)21.9 mph28.8 mphScattered Clouds
1:35 PM50.2 °F28.8 °F44 %29.64 in10.0 miWest (280°)20.7 mph31.1 mphClear
1:55 PM50.9 °F29.7 °F44 %29.64 in10.0 miWNW (300°)16.1 mph28.8 mphScattered Clouds
2:15 PM51.6 °F28.8 °F41 %29.64 in10.0 miWest (260°)18.4 mph32.2 mphScattered Clouds
2:35 PM51.3 °F28.6 °F42 %29.64 in10.0 miWest (270°)19.6 mph29.9 mphScattered Clouds
2:55 PM51.3 °F26.6 °F38 %29.63 in10.0 miWest (280°)20.7 mph38.0 mphClear
3:15 PM50.5 °F26.6 °F39 %29.64 in10.0 miWest (280°)24.2 mph31.1 mphClear
3:35 PM53.1 °F26.8 °F36 %29.64 in10.0 miWest (270°)24.2 mph34.5 mphClear
3:55 PM51.8 °F25.7 °F36 %29.64 in10.0 miWest (280°)24.2 mph31.1 mphScattered Clouds
4:15 PM51.4 °F24.4 °F35 %29.65 in10.0 miWest (270°)21.9 mph34.5 mphScattered Clouds
4:35 PM50.7 °F24.8 °F36 %29.66 in10.0 miWest (270°)18.4 mph27.6 mphScattered Clouds
4:55 PM50.0 °F25.2 °F38 %29.66 in10.0 miWest (280°)19.6 mph24.2 mphScattered Clouds
5:15 PM49.6 °F24.4 °F37 %29.67 in10.0 miWest (280°)21.9 mph29.9 mphScattered Clouds
5:35 PM49.1 °F23.7 °F37 %29.68 in10.0 miWest (270°)21.9 mph31.1 mphScattered Clouds
5:55 PM48.7 °F23.0 °F36 %29.69 in10.0 miWest (270°)19.6 mph32.2 mphMostly Cloudy
6:15 PM48.9 °F23.0 °F36 %29.70 in10.0 miWest (280°)19.6 mph26.5 mphScattered Clouds
6:35 PM48.4 °F22.5 °F36 %29.72 in10.0 miWest (280°)18.4 mph31.1 mphClear
6:55 PM47.3 °F22.8 °F38 %29.73 in10.0 miWest (280°)13.8 mph19.6 mphClear
7:15 PM46.8 °F23.0 °F39 %29.75 in10.0 miWest (270°)11.5 mph18.4 mphClear
7:35 PM46.4 °F22.3 °F39 %29.76 in10.0 miWest (280°)16.1 mph24.2 mphScattered Clouds
7:55 PM45.7 °F23.0 °F41 %29.77 in10.0 miWest (270°)12.7 mph19.6 mphScattered Clouds
8:15 PM45.3 °F23.5 °F42 %29.78 in10.0 miWest (270°)12.7 mph20.7 mphScattered Clouds
8:35 PM44.8 °F23.9 °F44 %29.79 in10.0 miWest (270°)11.5 mph17.3 mphScattered Clouds
8:55 PM44.4 °F23.7 °F44 %29.80 in10.0 miWest (270°)10.4 mphScattered Clouds
9:15 PM43.5 °F24.3 °F47 %29.82 in10.0 miWest (270°)9.2 mph17.3 mphClear
9:35 PM43.0 °F24.4 °F48 %29.83 in10.0 miWest (270°)9.2 mphClear
9:55 PM42.4 °F24.6 °F49 %29.84 in10.0 miWest (270°)9.2 mphClear
10:15 PM42.4 °F23.5 °F47 %29.85 in10.0 miWest (270°)12.7 mph17.3 mphClear
10:35 PM42.3 °F23.4 °F47 %29.85 in10.0 miWest (270°)15.0 mph20.7 mphClear
10:55 PM42.3 °F22.6 °F46 %29.86 in10.0 miWest (270°)13.8 mph20.7 mphClear
11:15 PM41.9 °F22.1 °F45 %29.87 in10.0 miWest (280°)12.7 mphClear
11:35 PM41.4 °F22.1 °F46 %29.88 in10.0 miWest (270°)15.0 mph19.6 mphClear
11:55 PM41.0 °F22.1 °F47 %29.88 in10.0 miWest (280°)12.7 mph18.4 mphClear
Hourly data recorded from KSUT, located miles away from Boiling Spring Lakes, North Carolina







STORIES FROM OUR PARTNERS